Weather in Leninsk

Russia / Volgograd Oblast     48°41′37″N   45°11′57″E
temp.,
°C
wind,
m/s
gust,
m/s
humid.,
%
clouds,
%
prec.,
mm/h
press.,
hPa
HPBL,
m
5 december, sun
sun500:00+7wsw2479100 0.0 101487
03:00+4nne5892100 0.0 1014222
06:00+4ne5789100 0.0 1014271
09:00+4ene5890100 0.1 1014258
12:00+6ese2495100 1.3 1012211
15:00+6ese4697100 2.6 1011198
18:00+6s2597100 2.4 1012249
21:00+6ne1298100 3.8 101359
6 december, mon
mon600:00+4nne5694100 0.1 1014226
03:00+3nne5892100 0.3 1016332
06:00+3nne5789100 0.0 1018362
09:00+3nne4688100 0.2 1019335
12:00+3nne4487100 0.1 1020307
15:00+3nne3487100 0.2 1021278
18:00+3nne2287100 0.0 1023213
21:00+2n2388100 0.0 1024203
7 december, tue
tue700:00+2ne2389100 0.0 1024184
03:00+3ne2390100 0.0 1025167
06:00+2e339386 0.0 102558
09:00+2ese35915 0.0 1026186
12:00+6ese457556 0.0 1025397
15:00+6se4775100 0.0 1024375
18:00+5ese51085100 0.0 1024247
21:00+4se51288100 0.0 1023276
8 december, wed
wed800:00+4ese61389100 0.0 1022290
03:00+4ese6158976 0.0 1021331
06:00+4ese7168898 0.0 1020375
09:00+5ese81981100 0.0 1019495
12:00+9ese9186467 0.0 1017698
15:00+9ese8156121 0.0 1016667
18:00+7ese81667100 0.0 1016545
21:00+6ese81667100 0.0 1016541
9 december, thu
thu900:00+5ese71465100 0.0 1015479
03:00+5ese61269100 0.0 1015388
06:00+5ese4873100 0.0 1015327
09:00+4ese4676100 0.0 1016301
12:00+5se3472100 0.0 1016400
15:00+6e2272100 0.0 1016195
18:00+4se1181100 0.0 101720
21:00+4nne1182100 0.0 101710